Regional Weather Roundup
Issued by NWS

Home | Current Version | Previous Version | Text Only | Print | Product List | Glossary Off
Versions: 1 2 3 4 5 6 7 8 9 10 11 12 13 14 15 16 17 18 19 20 21 22 23 24 25 26 27 28 29 30 31 32 33 34 35 36 37 38 39 40 41 42 43 44 45 46 47 48 49 50

000
ASUS43 KFSD 202110
RWRSD

WEATHER ROUNDUP FOR SOUTH DAKOTA
NATIONAL WEATHER SERVICE SIOUX FALLS SD
400 PM CDT MON APR 20 2015

NOTE: "FAIR" INDICATES FEW OR NO CLOUDS BELOW 12,000 FEET WITH NO
SIGNIFICANT WEATHER AND/OR OBSTRUCTIONS TO VISIBILITY.


SDZ001>005-009-010-012>017-202200-
NORTHWEST AND NORTH CENTRAL SOUTH DAKOTA

CITY           SKY/WX    TMP DP  RH WIND       PRES   REMARKS
BUFFALO          N/A     50  20  30 NW29      29.79F
FAITH            N/A     51  13  21 NW21G33   29.82S
MOBRIDGE       SUNNY     54  -1  10 NW30G48   29.72F
$$

SDZ012>016-024>037-041>051-057-063-072>074-202200-
SOUTHWEST AND SOUTH CENTRAL SOUTH DAKOTA

CITY           SKY/WX    TMP DP  RH WIND       PRES   REMARKS
RAPID CTY ARPT MOSUNNY   53  21  28 NW25G36   29.85F
PIERRE         SUNNY     56   4  12 NW29G43   29.78S
CUSTER         PTSUNNY   45  16  31 VRB7G23   29.84F
ELLSWORTH AFB  MOSUNNY   53  21  28 NW26G33   29.85
PHILIP         CLOUDY    55  32  41 NW24G36   29.83F
PINE RIDGE     CLOUDY    52  20  28 NW10G18   29.86F
SPEARFISH      FAIR      48  19  32 NW17G29   29.88F
WINNER         MOCLDY    56  15  20 NW32G39   29.79F
$$

SDZ004>011-016>023-039-040-202200-
NORTHEAST SOUTH DAKOTA

CITY           SKY/WX    TMP DP  RH WIND       PRES   REMARKS
ABERDEEN       CLOUDY    50  23  34 NW31G38   29.69F
WATERTOWN      CLOUDY    45  26  47 NW26G40   29.66S
BROOKINGS      CLOUDY    46  27  46 NW25G33   29.66F
SISSETON         N/A     41  29  62 NW32G41   29.63F
$$

SDZ017-020-022-023-036>040-048>070-202200-
SOUTHEAST SOUTH DAKOTA

CITY           SKY/WX    TMP DP  RH WIND       PRES   REMARKS
SIOUX FALLS    MOSUNNY   52  16  24 NW24G45   29.67F
HURON          SUNNY     54   7  15 NW32G45   29.69F
CHAMBERLAIN    SUNNY     55   4  12 NW35G43   29.78S
MITCHELL       SUNNY     56  -2   9 NW36G51   29.72F
YANKTON        SUNNY    N/A N/A N/A W35G44    29.71S
$$

ABBREVIATIONS USED IN REMARKS
   TC - TEMPERATURE IN CELSIUS
  WCI - WIND CHILL INDEX
   HX - HEAT INDEX
  VSB - VISIBILITY




USA.gov is the U.S. government's official web portal to all federal, state and local government web resources and services.